Date,TemperatureHighF,TemperatureAvgF,TemperatureLowF,DewpointHighF,DewpointAvgF,DewpointLowF,HumidityHigh,HumidityAvg,HumidityLow,PressureMaxIn,PressureMinIn,WindSpeedMaxMPH,WindSpeedAvgMPH,GustSpeedMaxMPH,PrecipitationSumIn
2013-1-1,34.2,26.9,21.5,19.9,14.4,10.7,75,60,41,30.54,30.27,9,4,15,0.00
2013-1-2,34.5,23.0,11.0,12.0,8.9,4.6,82,57,28,30.60,30.46,7,2,10,0.00
2013-1-3,35.0,23.3,12.1,14.5,10.8,6.7,80,60,40,30.71,30.56,4,1,6,0.00
2013-1-4,35.8,21.6,9.2,11.8,6.3,3.1,80,54,28,30.71,30.54,4,1,5,0.00
2013-1-5,41.9,27.8,14.1,8.3,6.0,3.9,66,41,22,30.73,30.59,6,2,9,0.00
2013-1-6,43.6,27.4,12.9,12.6,8.4,5.4,76,48,22,30.71,30.41,4,0,6,0.00
2013-1-7,49.6,35.0,26.7,17.2,14.0,10.3,63,43,26,30.41,30.14,6,0,7,0.00
2013-1-8,48.3,34.4,24.8,17.0,13.1,9.6,61,43,22,30.47,30.16,9,5,14,0.00
2013-1-9,51.8,35.8,24.0,15.1,13.3,10.6,58,41,22,30.66,30.35,7,2,9,0.00
2013-1-10,47.1,34.9,21.0,22.4,14.7,12.3,72,46,25,30.35,29.92,7,2,10,0.00
2013-1-11,42.4,33.3,22.2,23.6,5.7,-9.0,58,32,18,30.10,29.79,12,6,21,0.00
2013-1-12,32.7,20.7,10.2,0.9,-4.6,-12.4,55,34,17,30.37,30.09,7,2,12,0.00
2013-1-13,30.4,19.4,7.0,3.8,-1.3,-4.3,67,41,24,30.47,30.31,4,1,8,0.00
2013-1-14,29.9,19.9,13.0,21.0,9.9,-1.5,87,66,46,30.46,30.28,7,2,10,0.00
2013-1-15,23.8,15.0,5.1,5.8,1.1,-2.8,78,55,36,30.82,30.45,8,3,13,0.00
2013-1-16,37.7,23.8,10.0,14.3,8.0,1.0,75,52,37,30.88,30.70,7,2,13,0.00
2013-1-17,49.5,30.7,15.4,16.9,14.0,10.0,80,53,25,30.87,30.67,3,0,5,0.00
2013-1-18,51.8,34.8,19.9,19.9,17.3,14.7,83,52,26,30.68,30.45,2,0,4,0.00
2013-1-19,51.8,36.5,25.9,19.5,16.9,12.5,66,47,21,30.60,30.47,8,2,9,0.00
2013-1-20,55.2,37.0,24.5,18.3,13.7,6.7,62,41,17,30.55,30.36,6,2,8,0.00
2013-1-21,52.6,36.9,20.5,16.5,12.1,9.4,63,38,19,30.54,30.38,6,2,9,0.00
2013-1-22,57.6,40.7,24.7,17.8,13.7,5.5,68,37,14,30.52,30.38,6,1,10,0.00
2013-1-23,60.1,40.5,23.5,15.0,11.3,6.0,62,33,12,30.58,30.42,6,1,7,0.00
2013-1-24,62.4,45.4,26.5,34.5,17.1,9.4,56,35,16,30.51,30.31,6,1,10,0.00
2013-1-25,59.1,47.8,36.6,38.6,34.5,29.6,77,61,46,30.38,30.21,3,0,5,0.00
2013-1-26,49.6,45.2,41.7,44.4,37.9,35.2,87,75,66,30.23,29.99,5,1,7,0.11
2013-1-27,59.6,49.0,42.0,40.9,36.9,31.5,84,65,35,30.06,29.93,8,3,14,0.00
2013-1-28,55.7,45.4,37.2,37.8,32.3,16.9,81,61,35,29.98,29.76,11,5,21,0.02
2013-1-29,37.1,31.6,27.1,21.3,13.5,2.4,69,48,27,30.21,29.81,17,6,29,0.00
2013-1-30,40.8,31.2,22.4,17.0,13.5,6.5,67,49,30,30.49,30.22,12,5,20,0.00
2013-1-31,51.0,37.0,22.8,23.4,19.5,16.3,82,52,26,30.57,30.42,8,2,16,0.00